FW0177 Weather Reports


Display with metric or nautical units.
time (UTC)temp
F
wind
direction
speed
MPH
gust
MPH
rain 1hr
in
rain 24hr
in
rain mn
in
humidity
%
barometer
mb
20180224121233 68 183 4.0 11.0 0.00 0.00 0.00 93 1020.1
20180224120725 68 180 5.0 9.0 0.00 0.00 0.00 93 1020.2
20180224120222 68 194 4.0 9.0 0.00 0.00 0.00 93 1020.2
20180224115715 68 170 4.0 7.0 0.00 0.00 0.00 93 1020.1
20180224115228 68 166 4.0 8.0 0.00 0.00 0.00 93 1020.2
20180224114722 68 209 4.0 8.0 0.00 0.00 0.00 94 1020.1
20180224114234 67 211 3.0 6.0 0.00 0.00 0.00 94 1019.9
20180224113727 67 197 3.0 8.0 0.00 0.00 0.00 94 1019.8
20180224113218 67 175 4.0 6.0 0.00 0.00 0.00 94 1019.7
20180224112731 67 185 3.0 5.0 0.00 0.00 0.00 94 1019.6
20180224112227 67 175 3.0 10.0 0.00 0.00 0.00 94 1019.6
20180224111719 67 148 4.0 10.0 0.00 0.00 0.00 94 1019.6
20180224111232 67 173 3.0 7.0 0.00 0.00 0.00 94 1019.6
20180224110724 67 193 4.0 8.0 0.00 0.00 0.00 94 1019.7
20180224110218 67 183 3.0 6.0 0.00 0.00 0.00 94 1019.6
20180224105730 67 155 3.0 5.0 0.00 0.00 0.00 94 1019.6
20180224105223 67 184 3.0 8.0 0.00 0.00 0.00 95 1019.7
20180224104716 67 207 5.0 8.0 0.00 0.00 0.00 95 1019.7
20180224104232 67 180 4.0 6.0 0.00 0.00 0.00 95 1019.5
20180224103747 67 190 3.0 6.0 0.00 0.00 0.00 95 1019.4
20180224103216 67 183 3.0 8.0 0.00 0.00 0.00 95 1019.4
20180224102730 67 194 4.0 8.0 0.00 0.00 0.00 95 1019.5
20180224102223 67 171 3.0 7.0 0.00 0.00 0.00 95 1019.5
20180224101716 67 179 3.0 5.0 0.00 0.00 0.00 94 1019.5
20180224101228 67 172 3.0 7.0 0.00 0.00 0.00 94 1019.4
20180224100721 67 169 3.0 9.0 0.00 0.00 0.00 94 1019.3
20180224100217 67 148 3.0 9.0 0.00 0.00 0.00 94 1019.3
20180224095730 67 161 2.0 7.0 0.00 0.00 0.00 94 1019.5
20180224095223 67 145 3.0 7.0 0.00 0.00 0.00 94 1019.5
20180224094716 67 157 5.0 8.0 0.00 0.00 0.00 94 1019.6
20180224094228 67 176 4.0 6.0 0.00 0.00 0.00 94 1019.7
20180224093721 67 175 2.0 5.0 0.00 0.00 0.00 94 1019.8
20180224093234 68 180 2.0 5.0 0.00 0.00 0.00 94 1019.8
20180224092726 68 169 3.0 6.0 0.00 0.00 0.00 94 1019.9
20180224092223 68 161 4.0 6.0 0.00 0.00 0.00 94 1020.0
20180224091715 68 124 4.0 8.0 0.00 0.00 0.00 94 1020.0
20180224091228 68 180 2.0 6.0 0.00 0.00 0.00 94 1020.1
20180224090722 68 173 3.0 6.0 0.00 0.00 0.00 94 1020.1
20180224090233 68 194 3.0 6.0 0.00 0.00 0.00 94 1020.1
20180224085725 68 182 3.0 6.0 0.00 0.00 0.00 94 1020.2
20180224085218 68 178 3.0 8.0 0.00 0.00 0.00 94 1020.2
20180224084715 68 157 3.0 8.0 0.00 0.00 0.00 94 1020.2
20180224084227 68 189 3.0 5.0 0.00 0.00 0.00 94 1020.3
20180224083721 68 161 2.0 5.0 0.00 0.00 0.00 94 1020.3
20180224083234 68 191 2.0 5.0 0.00 0.00 0.00 94 1020.3
20180224082726 68 167 2.0 5.0 0.00 0.00 0.00 94 1020.4
20180224082219 68 188 4.0 7.0 0.00 0.00 0.00 93 1020.5
20180224081732 68 186 3.0 7.0 0.00 0.00 0.00 93 1020.5
20180224081224 68 182 4.0 8.0 0.00 0.00 0.00 93 1020.5
20180224080720 68 157 4.0 8.0 0.00 0.00 0.00 93 1020.5
20180224080234 68 192 4.0 8.0 0.00 0.00 0.00 93 1020.5
20180224075722 68 180 4.0 9.0 0.00 0.00 0.00 93 1020.6
20180224075234 68 180 4.0 9.0 0.00 0.00 0.00 93 1020.7
20180224074727 68 158 5.0 8.0 0.00 0.00 0.00 93 1020.7
20180224074220 68 142 5.0 10.0 0.00 0.00 0.00 93 1020.8
20180224073732 68 172 5.0 10.0 0.00 0.00 0.00 93 1020.8
20180224073225 68 175 4.0 9.0 0.00 0.00 0.00 93 1020.9
20180224072721 68 167 6.0 10.0 0.00 0.00 0.00 93 1020.9
20180224072234 68 172 6.0 8.0 0.00 0.00 0.00 93 1020.9
20180224071726 68 167 4.0 8.0 0.00 0.00 0.00 93 1021.0
20180224071219 68 140 4.0 8.0 0.00 0.00 0.00 93 1021.0
20180224070731 68 178 6.0 9.0 0.00 0.00 0.00 93 1021.0
20180224070224 68 153 5.0 10.0 0.00 0.00 0.00 92 1021.0
20180224065717 68 169 6.0 10.0 0.00 0.00 0.00 92 1021.0
20180224065230 68 163 4.0 7.0 0.00 0.00 0.00 91 1021.1
20180224064727 68 178 3.0 5.0 0.00 0.00 0.00 91 1021.1
20180224064220 68 172 3.0 9.0 0.00 0.00 0.00 91 1021.1
20180224063732 68 204 4.0 9.0 0.00 0.00 0.00 91 1021.2
20180224063225 68 180 4.0 7.0 0.00 0.00 0.00 91 1021.2
20180224062717 68 183 4.0 7.0 0.00 0.00 0.00 91 1021.1
20180224062230 68 182 3.0 7.0 0.00 0.00 0.00 91 1021.2
20180224061723 68 164 4.0 7.0 0.00 0.00 0.00 91 1021.2
20180224061216 68 200 4.0 8.0 0.00 0.00 0.00 91 1021.2
20180224060732 68 183 4.0 8.0 0.00 0.00 0.00 91 1021.2
20180224060224 68 182 4.0 8.0 0.00 0.00 0.00 91 1021.2
20180224055717 68 188 3.0 8.0 0.00 0.00 0.00 91 1021.3
20180224055229 68 182 3.0 6.0 0.00 0.00 0.00 91 1021.2
20180224054722 68 190 3.0 7.0 0.00 0.00 0.00 91 1021.3
20180224054234 68 163 4.0 6.0 0.00 0.00 0.00 91 1021.4
20180224053727 68 172 3.0 5.0 0.00 0.00 0.00 91 1021.5
20180224053220 68 157 2.0 7.0 0.00 0.00 0.00 91 1021.5
20180224052716 69 157 3.0 7.0 0.00 0.00 0.00 91 1021.5
20180224052229 69 165 3.0 6.0 0.00 0.00 0.00 91 1021.6
20180224051722 69 171 3.0 5.0 0.00 0.00 0.00 91 1021.6
20180224051234 69 184 3.0 7.0 0.00 0.00 0.00 90 1021.6
20180224050727 69 190 3.0 7.0 0.00 0.00 0.00 90 1021.6
20180224050219 69 165 3.0 7.0 0.00 0.00 0.00 90 1021.7
20180224045732 69 173 3.0 6.0 0.00 0.00 0.00 90 1021.7
20180224045225 69 156 3.0 7.0 0.00 0.00 0.00 90 1021.7
20180224044721 69 184 2.0 7.0 0.00 0.00 0.00 89 1021.8
20180224044215 69 157 3.0 5.0 0.00 0.00 0.00 89 1021.8
20180224043727 69 163 3.0 6.0 0.00 0.00 0.00 89 1021.8
20180224043220 70 179 3.0 6.0 0.00 0.00 0.00 89 1021.9
20180224042733 70 150 4.0 8.0 0.00 0.00 0.00 89 1022.0
20180224042225 70 165 4.0 8.0 0.00 0.00 0.00 88 1022.0
20180224041717 70 178 4.0 6.0 0.00 0.00 0.00 88 1022.0
20180224041230 70 159 4.0 7.0 0.00 0.00 0.00 88 1022.1
20180224040727 70 178 3.0 7.0 0.00 0.00 0.00 88 1022.1
20180224040220 70 201 3.0 7.0 0.00 0.00 0.00 88 1022.1
20180224035732 70 173 4.0 7.0 0.00 0.00 0.00 88 1022.0
20180224035225 70 172 4.0 8.0 0.00 0.00 0.00 88 1022.1
20180224034717 70 166 5.0 8.0 0.00 0.00 0.00 88 1022.1
20180224034230 70 181 3.0 8.0 0.00 0.00 0.00 87 1022.0
20180224033722 70 194 3.0 8.0 0.00 0.00 0.00 87 1022.0
20180224033219 70 161 2.0 6.0 0.00 0.00 0.00 87 1022.2
20180224032732 70 181 3.0 6.0 0.00 0.00 0.00 87 1022.2
20180224032224 71 163 3.0 7.0 0.00 0.00 0.00 86 1022.3
20180224031717 71 175 4.0 7.0 0.00 0.00 0.00 86 1022.3
20180224031229 71 175 3.0 7.0 0.00 0.00 0.00 86 1022.4
20180224030722 71 184 4.0 7.0 0.00 0.00 0.00 86 1022.3
20180224030234 71 178 4.0 8.0 0.00 0.00 0.00 86 1022.4
20180224025727 71 177 6.0 8.0 0.00 0.00 0.00 85 1022.4
20180224025223 71 181 4.0 6.0 0.00 0.00 0.00 85 1022.4
20180224024716 71 180 3.0 6.0 0.00 0.00 0.00 85 1022.3
20180224024228 71 177 5.0 7.0 0.00 0.00 0.00 85 1022.4
20180224023721 71 178 3.0 7.0 0.00 0.00 0.00 85 1022.5
20180224023215 71 165 3.0 9.0 0.00 0.00 0.00 85 1022.4
20180224022727 71 152 2.0 5.0 0.00 0.00 0.00 85 1022.2
20180224022219 71 142 2.0 5.0 0.00 0.00 0.00 84 1022.3
20180224021732 71 125 3.0 5.0 0.00 0.00 0.00 84 1022.4
20180224021229 72 166 3.0 6.0 0.00 0.00 0.00 84 1022.3
20180224020721 72 182 3.0 6.0 0.00 0.00 0.00 83 1022.3
20180224020234 72 182 4.0 7.0 0.00 0.00 0.00 83 1022.2
20180224015727 72 192 3.0 5.0 0.00 0.00 0.00 82 1022.2
20180224015219 72 143 2.0 4.0 0.00 0.00 0.00 82 1022.2
20180224014732 72 135 2.0 5.0 0.00 0.00 0.00 81 1022.2
20180224014225 72 168 3.0 5.0 0.00 0.00 0.00 81 1022.2
20180224013718 73 153 3.0 5.0 0.00 0.00 0.00 80 1022.2
20180224013234 73 178 3.0 5.0 0.00 0.00 0.00 80 1022.3
20180224012727 73 176 3.0 5.0 0.00 0.00 0.00 79 1022.3
20180224012220 73 167 3.0 6.0 0.00 0.00 0.00 79 1022.4
20180224011729 74 172 2.0 6.0 0.00 0.00 0.00 78 1022.4
20180224011222 74 177 3.0 7.0 0.00 0.00 0.00 78 1022.4
20180224010734 74 173 3.0 7.0 0.00 0.00 0.00 78 1022.5
20180224010228 74 167 4.0 8.0 0.00 0.00 0.00 78 1022.4
20180224005719 74 169 4.0 8.0 0.00 0.00 0.00 78 1022.4
20180224005216 74 174 1.0 3.0 0.00 0.00 0.00 78 1022.5
20180224004729 74 173 2.0 3.0 0.00 0.00 0.00 78 1022.4
20180224004222 74 176 0.0 1.0 0.00 0.00 0.00 77 1022.3
20180224003715 74 161 0.0 0.0 0.00 0.00 0.00 77 1022.3
20180224003227 75 161 0.0 0.0 0.00 0.00 0.00 77 1022.3
20180224002720 75 161 0.0 0.0 0.00 0.00 0.00 76 1022.3
20180224002232 75 166 0.0 4.0 0.00 0.00 0.00 76 1022.2
20180224001725 75 139 3.0 5.0 0.00 0.00 0.00 75 1022.2
20180224001222 75 157 3.0 7.0 0.00 0.00 0.00 75 1022.3
20180224000734 76 188 2.0 7.0 0.00 0.00 0.00 74 1022.3
20180224000227 76 179 1.0 5.0 0.00 0.00 0.00 73 1022.3
20180223235719 76 163 1.0 4.0 0.00 0.00 0.00 73 1022.3
20180223235232 76 134 2.0 5.0 0.00 0.00 0.00 72 1022.3
20180223234724 77 205 2.0 5.0 0.00 0.00 0.00 72 1022.3
20180223234217 77 205 0.0 3.0 0.00 0.00 0.00 72 1022.3
20180223233729 77 205 0.0 4.0 0.00 0.00 0.00 71 1022.2
20180223233226 77 219 2.0 4.0 0.00 0.00 0.00 71 1022.2
20180223232718 77 152 0.0 0.0 0.00 0.00 0.00 71 1022.3
20180223232231 78 152 0.0 0.0 0.00 0.00 0.00 71 1022.2
20180223231725 78 152 0.0 0.0 0.00 0.00 0.00 70 1022.2
20180223231217 78 152 0.0 0.0 0.00 0.00 0.00 70 1022.2
20180223230730 78 152 0.0 0.0 0.00 0.00 0.00 69 1022.2
20180223230222 78 152 0.0 4.0 0.00 0.00 0.00 68 1022.2
20180223225719 78 152 0.0 4.0 0.00 0.00 0.00 67 1022.2
20180223225232 79 123 1.0 6.0 0.00 0.00 0.00 66 1022.1
20180223224724 79 108 2.0 6.0 0.00 0.00 0.00 65 1022.0
20180223224217 80 207 3.0 6.0 0.00 0.00 0.00 64 1022.1
20180223223729 80 198 4.0 6.0 0.00 0.00 0.00 64 1022.2
20180223223222 80 148 3.0 6.0 0.00 0.00 0.00 64 1022.0
20180223222734 80 178 1.0 4.0 0.00 0.00 0.00 66 1022.0
20180223222227 79 136 0.0 0.0 0.00 0.00 0.00 67 1022.2
20180223221723 79 136 0.0 4.0 0.00 0.00 0.00 67 1022.1
20180223221216 79 140 1.0 4.0 0.00 0.00 0.00 67 1022.2
20180223220728 79 129 2.0 4.0 0.00 0.00 0.00 66 1022.1
20180223220224 79 133 0.0 4.0 0.00 0.00 0.00 67 1022.2
20180223215715 78 132 0.0 6.0 0.00 0.00 0.00 67 1022.2
20180223215227 79 126 0.0 6.0 0.00 0.00 0.00 67 1022.2
20180223214720 78 148 1.0 5.0 0.00 0.00 0.00 67 1022.3
20180223214232 78 179 0.0 4.0 0.00 0.00 0.00 67 1022.3
20180223213729 78 175 2.0 5.0 0.00 0.00 0.00 66 1022.3
20180223213222 78 146 3.0 6.0 0.00 0.00 0.00 66 1022.4
20180223212734 79 144 3.0 6.0 0.00 0.00 0.00 65 1022.4
20180223212228 79 124 3.0 9.0 0.00 0.00 0.00 64 1022.5
20180223211720 80 130 5.0 9.0 0.00 0.00 0.00 64 1022.6
20180223211233 79 142 3.0 8.0 0.00 0.00 0.00 65 1022.7
20180223210725 79 191 4.0 8.0 0.00 0.00 0.00 65 1022.8
20180223210218 79 192 4.0 8.0 0.00 0.00 0.00 66 1022.8
20180223205714 78 194 4.0 8.0 0.00 0.00 0.00 68 1022.8
20180223205228 78 201 3.0 6.0 0.00 0.00 0.00 68 1022.9
20180223204721 78 103 3.0 6.0 0.00 0.00 0.00 67 1023.0
20180223204233 78 156 3.0 4.0 0.00 0.00 0.00 69 1023.0
20180223203726 77 181 1.0 5.0 0.00 0.00 0.00 69 1023.1
20180223203218 77 179 3.0 6.0 0.00 0.00 0.00 69 1023.2
20180223202731 77 209 2.0 6.0 0.00 0.00 0.00 70 1023.3
20180223202223 77 178 2.0 6.0 0.00 0.00 0.00 70 1023.5
20180223201720 77 221 4.0 6.0 0.00 0.00 0.00 69 1023.6
20180223201233 77 223 3.0 5.0 0.00 0.00 0.00 69 1023.6
20180223200725 77 227 2.0 8.0 0.00 0.00 0.00 70 1023.7
20180223200218 77 190 5.0 8.0 0.00 0.00 0.00 70 1023.9
20180223195731 76 132 2.0 6.0 0.00 0.00 0.00 70 1023.9
20180223195224 77 232 4.0 6.0 0.00 0.00 0.00 70 1024.0
20180223194716 77 194 3.0 6.0 0.00 0.00 0.00 70 1024.1
20180223194229 77 174 1.0 7.0 0.00 0.00 0.00 70 1024.0
20180223193725 77 116 3.0 7.0 0.00 0.00 0.00 69 1024.2
20180223193218 77 189 5.0 7.0 0.00 0.00 0.00 68 1024.4
20180223192731 78 112 2.0 6.0 0.00 0.00 0.00 68 1024.3
20180223192225 78 164 0.0 6.0 0.00 0.00 0.00 67 1024.5
20180223191717 78 85 3.0 8.0 0.00 0.00 0.00 69 1024.6
20180223191230 77 150 3.0 8.0 0.00 0.00 0.00 70 1024.7
20180223190722 76 188 1.0 8.0 0.00 0.00 0.00 72 1024.8
20180223190218 76 182 5.0 8.0 0.00 0.00 0.00 70 1025.0
20180223185730 76 244 1.0 5.0 0.00 0.00 0.00 72 1025.1
20180223185223 75 119 2.0 7.0 0.00 0.00 0.00 72 1025.3
20180223184716 75 202 5.0 7.0 0.00 0.00 0.00 71 1025.3
20180223184229 76 171 3.0 6.0 0.00 0.00 0.00 73 1025.5
20180223183721 75 202 1.0 7.0 0.00 0.00 0.00 73 1025.6
20180223183233 76 244 3.0 7.0 0.00 0.00 0.00 71 1025.7
20180223182726 75 149 3.0 9.0 0.00 0.00 0.00 73 1025.8
20180223182222 75 184 4.0 9.0 0.00 0.00 0.00 73 1026.1
20180223181715 75 232 2.0 6.0 0.00 0.00 0.00 73 1026.1
20180223181229 74 197 4.0 6.0 0.00 0.00 0.00 75 1026.2
20180223180717 74 192 2.0 6.0 0.00 0.00 0.00 74 1026.3
20180223180226 74 194 2.0 6.0 0.00 0.00 0.00 75 1026.4
20180223175734 74 199 4.0 8.0 0.00 0.00 0.00 75 1026.5
20180223175226 74 229 5.0 8.0 0.00 0.00 0.00 75 1026.6
20180223174716 74 211 3.0 6.0 0.00 0.00 0.00 75 1026.6
20180223174227 74 131 2.0 6.0 0.00 0.00 0.00 76 1026.6
20180223173725 73 154 3.0 7.0 0.00 0.00 0.00 77 1026.7
20180223173217 73 201 4.0 7.0 0.00 0.00 0.00 77 1026.7
20180223172730 73 153 4.0 7.0 0.00 0.00 0.00 78 1026.8
20180223172222 72 173 4.0 7.0 0.00 0.00 0.00 78 1026.9
20180223171714 72 163 4.0 8.0 0.00 0.00 0.00 78 1026.9
20180223171227 73 146 3.0 8.0 0.00 0.00 0.00 78 1027.0
20180223170720 72 166 3.0 9.0 0.00 0.00 0.00 78 1027.0
20180223170216 72 215 3.0 7.0 0.00 0.00 0.00 78 1027.1
20180223165722 72 134 2.0 4.0 0.00 0.00 0.00 79 1027.2
20180223165233 72 202 1.0 7.0 0.00 0.00 0.00 80 1027.2
20180223164726 72 179 4.0 7.0 0.00 0.00 0.00 81 1027.3
20180223164218 72 124 2.0 6.0 0.00 0.00 0.00 80 1027.4
20180223163730 71 178 2.0 6.0 0.00 0.00 0.00 80 1027.4
20180223163222 72 167 2.0 9.0 0.00 0.00 0.00 80 1027.5
20180223162715 72 202 7.0 9.0 0.00 0.00 0.00 80 1027.5
20180223162227 71 171 3.0 9.0 0.00 0.00 0.00 81 1027.5
20180223161725 72 179 6.0 9.0 0.00 0.00 0.00 81 1027.5
20180223161217 71 214 1.0 6.0 0.00 0.00 0.00 82 1027.4
20180223160730 71 138 3.0 6.0 0.00 0.00 0.00 82 1027.5
20180223160223 71 118 3.0 8.0 0.00 0.00 0.00 83 1027.5
20180223155715 71 209 5.0 8.0 0.00 0.00 0.00 82 1027.5
20180223155227 71 154 4.0 8.0 0.00 0.00 0.00 82 1027.5
20180223154720 71 209 3.0 9.0 0.00 0.00 0.00 82 1027.5
20180223154216 71 202 4.0 7.0 0.00 0.00 0.00 83 1027.5
20180223153729 70 179 6.0 10.0 0.00 0.00 0.00 84 1027.5
20180223153223 69 213 5.0 8.0 0.00 0.00 0.00 86 1027.5
20180223152715 69 188 5.0 8.0 0.00 0.00 0.00 85 1027.5
20180223152227 69 190 5.0 8.0 0.00 0.00 0.00 85 1027.5
20180223151720 69 89 3.0 7.0 0.00 0.00 0.00 86 1027.5
20180223151233 69 180 4.0 6.0 0.00 0.00 0.00 85 1027.4
20180223150725 69 187 3.0 6.0 0.00 0.00 0.00 86 1027.4
20180223150222 69 186 4.0 5.0 0.00 0.00 0.00 86 1027.4
20180223145734 69 200 3.0 5.0 0.00 0.00 0.00 86 1027.4
20180223145227 69 147 3.0 5.0 0.00 0.00 0.00 87 1027.4
20180223144719 68 164 3.0 6.0 0.00 0.00 0.00 88 1027.3
20180223144232 68 202 3.0 7.0 0.00 0.00 0.00 90 1027.2
20180223143725 68 188 4.0 6.0 0.00 0.00 0.00 90 1027.1
20180223143217 67 165 1.0 4.0 0.00 0.00 0.00 91 1027.1
20180223142730 67 144 2.0 7.0 0.00 0.00 0.00 92 1027.0
20180223142226 67 186 3.0 7.0 0.00 0.00 0.00 91 1026.9
20180223141718 66 207 4.0 7.0 0.00 0.00 0.00 92 1026.8
20180223141231 66 159 2.0 7.0 0.00 0.00 0.00 93 1026.8
20180223140723 66 192 3.0 6.0 0.00 0.00 0.00 93 1026.8
20180223140217 66 190 3.0 7.0 0.00 0.00 0.00 93 1026.7
20180223135728 66 109 2.0 7.0 0.00 0.00 0.00 94 1026.6
20180223135221 65 104 2.0 5.0 0.00 0.00 0.00 94 1026.6
20180223134733 65 195 2.0 4.0 0.00 0.00 0.00 94 1026.5
20180223134230 65 138 2.0 6.0 0.00 0.00 0.00 94 1026.5
20180223133723 65 173 3.0 6.0 0.00 0.00 0.00 94 1026.4
20180223133216 65 157 3.0 8.0 0.00 0.00 0.00 95 1026.4
20180223132728 65 146 2.0 6.0 0.00 0.00 0.00 95 1026.3
20180223132221 65 140 3.0 6.0 0.00 0.00 0.00 95 1026.3
20180223131734 65 172 3.0 7.0 0.00 0.00 0.00 95 1026.2
20180223131226 65 51 2.0 7.0 0.00 0.00 0.00 95 1026.1
20180223130719 65 155 2.0 7.0 0.00 0.00 0.00 95 1026.0
20180223130216 64 160 3.0 6.0 0.00 0.00 0.00 96 1026.0
20180223125728 64 180 2.0 6.0 0.00 0.00 0.00 96 1025.9
20180223125221 64 153 2.0 7.0 0.00 0.00 0.00 96 1025.8
20180223124734 64 166 3.0 7.0 0.00 0.00 0.00 96 1025.8
20180223124226 64 186 1.0 5.0 0.00 0.00 0.00 96 1025.8
20180223123718 64 186 2.0 5.0 0.00 0.00 0.00 96 1025.6
20180223123231 64 189 2.0 6.0 0.00 0.00 0.00 96 1025.6
20180223122725 64 163 3.0 6.0 0.00 0.00 0.00 96 1025.6
20180223122221 64 148 1.0 5.0 0.00 0.00 0.00 96 1025.5
20180223121733 64 161 2.0 6.0 0.00 0.00 0.00 96 1025.5